Tracking 18844 objects as of 21-Nov-2017
HD Live streaming from Space Station
objects crossing your sky now

GALAXY 27 (TELSTAR 7)

Track GALAXY 27 (TELSTAR 7) now!
GALAXY 27 (TELSTAR 7) is classified as:


NORAD ID: 25922
Int'l Code: 1999-052A
Perigee: 36,122.2 km
Apogee: 36,176.0 km
Inclination: 3.5 °
Period: 1,454.3 minutes
Semi major axis: 42520 km
RCS: 15.8489 m2 (large)
Launch date: September 25, 1999
Source: International Telecommunications Satellite Organization (ITSO)
Launch site: FRENCH GUIANA (FRGUI)

24 C-band, 24 Ku-band; voice and video to North and Central America.
aabbcc
Your satellite tracking list
Your tracking list is empty




NASA's NSSDC Master Catalog

Two Line Element Set (TLE):
1 25922U 99052A   17324.91298085 +.00000050 +00000-0 +00000-0 0  9999
2 25922 003.4943 071.7573 0006330 236.6881 122.9377 00.99017503020266
Source of the keplerian elements: AFSPC